SL-16 DEB

Satellite information

Favourite Embed

Satellite Type and Status

DEBRISIN ORBIT

Key statistics

Satellite SL-16 DEB at a glance.

Uptime

11846

Days in orbit

Revolutions

≈ 14.4

Per day

Orbit

LEO

Low Earth Orbit

Inclination

70.4

Latest

Satellite identification and parameters

Extended collection of information and parameters for SL-16 DEB.

Object identification

Identified? True

Debris? True

Object name: SL-16 DEB

International designator: 1993-016AX

Object number (NORAD): 39873

Object ID (CCSDS): 39873

Country: COMMONWEALTH OF INDEPENDENT STATES (CIS)

Current information (Y/N): Y

RCS size: SMALL

Orbital parameters

Period: 99.939 minutes

Inclination: 70.3915 deg

SMA: 7133.719 km

Apoapsis: 816.438 km

Periapsis: 694.729 km

RAAN: 122.0873 deg

Eccentricy: 0.00853054

Argument of periapsis: 235.5896 deg

Mean anomaly: 123.7151 deg

Mean motion: 14.40883197 rev/day

Mean motion (dot): 0.00004264 rev/day2

B* drag term: 0.0012892457 1/REarth

Two-line elements (TLE)

Creation date: Aug. 27, 2025, 12:18 p.m.

Reference frame: TEME

Reference center: EARTH

Epoch: Aug. 27, 2025, 1:53 a.m. UTC

TLE line 0: 0 SL-16 DEB

TLE line 1: 1 39873U 93016AX 25239.07896965 .00004264 00000-0 12892-2 0 9990

TLE line 2: 2 39873 70.3915 122.0873 0085305 235.5896 123.7151 14.40883197582997

Live tracking on map

Real-time ground track for satellite SL-16 DEB.

In-orbit conjunctions

A list of the most updated potential collisions computed for object SL-16 DEB.

Target Orbit TCA Probability of collision Miss distance Type
FENGYUN 1C DEB SSO 2025-08-25 01:30:43 0.0001720319 29.0 (m) DEBRIS
COSMOS 2082 LEO 2024-12-10 01:34:45 0.0001616514 171.0 (m) PAYLOAD
IRIDIUM 33 LEO 2024-11-14 19:15:39 0.0007051158 60.0 (m) PAYLOAD
NOAA 16 DEB SSO 2024-09-27 13:00:18 0.0003719643 975.0 (m) DEBRIS

Associated space launch

Second generation ELING satellite

SL-16 DEB was lifted into orbit during the mission ‘Zenit-2 | Tselina-2 13’, on board a Zenit-2 space rocket.

The launch took place on March 26, 1993, 2:21 a.m. from 45/1.

For more information about the launch, click the button.

Launch to space Zenit-2 | Tselina-2 13
Zenit-2 | Tselina-2 13

Agency: N/A

Status: Launch Successful

Launch date: March 26, 1993, 2:21 a.m. UTC

Rocket: Zenit-2

Launch pad: 45/1

Location: Baikonur Cosmodrome, Republic of Kazakhstan

...

Latest news about this satellite

There are no fresh news available about this satellite. Check back as we update our databases every day.


Newsletter sign-up

Weekly statistics, charts and insights to help you stay on top of the space industry.